Вернуться в каталог

CRRES DEB

CANISTER

АктивенGTO
NORAD 21777·DEBRIS·🇺🇸 United States

Запущен Jul 25, 1990 с Cape Canaveral Space Force Station

Loading…

TLE

УстаревшееSource: Space-Track

Эпоха: Sep 13, 2026, 04:58 UTC

1 21777U 90065Q   26256.20700975 -.00000099  00000-0  28903-2 0  9998
2 21777  18.3227 204.5812 6940347 154.3002 356.3356  2.39839193284843

Отслеживайте CRRES DEB в реальном времени с AllMySat

Download on the App Store